2016-05-03 00:01:17 r, 17.96m,0000000006Hz,0000079692c,0000000.173s, 031.2C,00002195
2016-05-03 00:11:17 r, 18.08m,0000000006Hz,0000089092c,0000000.193s, 030.9C,00002195
2016-05-03 00:21:18 r, 18.11m,0000000005Hz,0000091247c,0000000.198s, 030.6C,00002195
2016-05-03 00:31:17 r, 18.08m,0000000005Hz,0000089308c,0000000.194s, 030.2C,00002195
2016-05-03 00:41:18 r, 18.11m,0000000005Hz,0000091092c,0000000.198s, 029.9C,00002195
2016-05-03 00:51:18 r, 18.12m,0000000004Hz,0000092321c,0000000.200s, 029.6C,00002195
2016-05-03 01:01:17 r, 18.14m,0000000005Hz,0000094079c,0000000.204s, 029.6C,00002195
2016-05-03 01:11:18 r, 18.19m,0000000004Hz,0000098042c,0000000.213s, 029.3C,00002195
2016-05-03 01:21:17 r, 18.20m,0000000005Hz,0000099788c,0000000.217s, 029.0C,00002195
2016-05-03 01:31:17 r, 18.19m,0000000005Hz,0000098031c,0000000.213s, 028.6C,00002195
2016-05-03 01:41:20 r, 18.20m,0000000004Hz,0000099008c,0000000.215s, 028.6C,00002195
2016-05-03 01:51:17 r, 18.05m,0000000006Hz,0000086022c,0000000.187s, 028.3C,00002195
2016-05-03 02:01:18 r, 17.13m,0000000013Hz,0000036977c,0000000.080s, 028.0C,00002195
2016-05-03 02:11:18 r, 16.52m,0000000022Hz,0000021177c,0000000.046s, 028.3C,00002195
2016-05-03 02:21:19 r, 16.67m,0000000019Hz,0000024174c,0000000.052s, 028.3C,00002195
2016-05-03 02:31:17 r, 17.72m,0000000008Hz,0000063691c,0000000.138s, 028.3C,00002195
2016-05-03 02:41:17 r, 16.99m,0000000014Hz,0000032699c,0000000.071s, 028.3C,00002195
2016-05-03 02:51:20 r, 17.25m,0000000011Hz,0000041647c,0000000.090s, 028.3C,00002195
2016-05-03 03:01:18 r, 16.47m,0000000023Hz,0000020188c,0000000.044s, 028.3C,00002195
2016-05-03 03:11:20 r, 16.52m,0000000022Hz,0000021222c,0000000.046s, 028.3C,00002195
2016-05-03 03:21:18 r, 16.64m,0000000020Hz,0000023622c,0000000.051s, 028.6C,00002195
2016-05-03 03:31:18 r, 17.78m,0000000007Hz,0000067098c,0000000.146s, 028.6C,00002195
2016-05-03 03:41:18 r, 17.19m,0000000012Hz,0000039341c,0000000.085s, 028.3C,00002195
2016-05-03 03:51:19 r, 17.20m,0000000012Hz,0000039494c,0000000.086s, 028.3C,00002195
2016-05-03 04:01:18 r, 16.61m,0000000020Hz,0000022903c,0000000.050s, 028.3C,00002195
2016-05-03 04:11:18 r, 17.69m,0000000008Hz,0000062454c,0000000.136s, 028.3C,00002195
2016-05-03 04:21:18 r, 17.59m,0000000008Hz,0000056599c,0000000.123s, 028.0C,00002195
2016-05-03 04:31:18 r, 17.53m,0000000008Hz,0000053755c,0000000.117s, 028.0C,00002195
2016-05-03 04:41:18 r, 16.86m,0000000016Hz,0000028767c,0000000.062s, 027.7C,00002195
2016-05-03 04:51:18 r, 17.33m,0000000011Hz,0000044685c,0000000.097s, 027.3C,00002195
2016-05-03 05:01:18 r, 16.23m,0000000029Hz,0000016147c,0000000.035s, 027.3C,00002195
2016-05-03 05:11:18 r, 15.45m,0000000058Hz,0000007874c,0000000.017s, 027.3C,00002195
2016-05-03 05:21:18 r, 13.77m,0000000276Hz,0000000000c,0000000.000s, 027.3C,00002195
2016-05-03 05:31:18 r, 11.97m,0000001448Hz,0000000000c,0000000.000s, 027.3C,00002195
2016-05-03 05:41:18 r, 10.27m,0000006936Hz,0000000000c,0000000.000s, 027.3C,00002195
2016-05-03 05:51:18 r, 08.79m,0000027047Hz,0000000000c,0000000.000s, 027.3C,00002195
2016-05-03 06:01:18 r, 07.73m,0000071950Hz,0000000000c,0000000.000s, 027.0C,00002195
2016-05-03 06:11:20 r, 06.95m,0000147752Hz,0000000000c,0000000.000s, 027.0C,00002195
2016-05-03 06:21:18 r, 06.37m,0000251737Hz,0000000000c,0000000.000s, 027.0C,00002195
2016-05-03 06:31:18 r, 05.94m,0000375107Hz,0000000000c,0000000.000s, 027.0C,00002195
2016-05-03 06:41:18 r, 00.00m,0000560687Hz,0000000000c,0000000.000s, 026.7C,00002195
2016-05-03 06:51:18 r, 00.00m,0000563585Hz,0000000000c,0000000.000s, 027.0C,00002195
2016-05-03 07:01:18 r, 00.00m,0000563622Hz,0000000000c,0000000.000s, 026.7C,00002195
2016-05-03 07:11:18 r, 00.00m,0000563566Hz,0000000000c,0000000.000s, 026.7C,00002195
2016-05-03 07:21:18 r, 00.00m,0000563601Hz,0000000000c,0000000.000s, 026.7C,00002195
2016-05-03 07:31:18 r, 00.00m,0000563538Hz,0000000000c,0000000.000s, 026.7C,00002195
2016-05-03 07:41:20 r, 00.00m,0000563546Hz,0000000000c,0000000.000s, 027.0C,00002195
2016-05-03 07:51:18 r, 00.00m,0000563733Hz,0000000000c,0000000.000s, 027.3C,00002195
2016-05-03 08:01:18 r, 00.00m,0000563682Hz,0000000000c,0000000.000s, 027.3C,00002195
2016-05-03 08:11:18 r, 00.00m,0000563719Hz,0000000000c,0000000.000s, 027.7C,00002195
2016-05-03 08:21:18 r, 00.00m,0000563740Hz,0000000000c,0000000.000s, 027.7C,00002195
2016-05-03 08:31:18 r, 00.00m,0000563714Hz,0000000000c,0000000.000s, 028.0C,00002195
2016-05-03 08:41:18 r, 00.00m,0000563707Hz,0000000000c,0000000.000s, 027.7C,00002195
2016-05-03 08:51:19 r, 00.00m,0000563644Hz,0000000000c,0000000.000s, 028.0C,00002195
2016-05-03 09:01:18 r, 00.00m,0000563921Hz,0000000000c,0000000.000s, 029.0C,00002195
2016-05-03 09:11:18 r, 00.00m,0000564234Hz,0000000000c,0000000.000s, 031.2C,00002195
2016-05-03 09:21:18 r, 00.00m,0000564445Hz,0000000000c,0000000.000s, 033.1C,00002195
2016-05-03 09:31:19 r, 00.00m,0000564578Hz,0000000000c,0000000.000s, 034.8C,00002195
2016-05-03 09:41:18 r, 00.00m,0000564762Hz,0000000000c,0000000.000s, 036.0C,00002195
2016-05-03 09:51:18 r, 00.00m,0000564791Hz,0000000000c,0000000.000s, 036.7C,00002195
2016-05-03 10:01:19 r, 00.00m,0000564864Hz,0000000000c,0000000.000s, 037.3C,00002195
2016-05-03 10:11:18 r, 00.00m,0000564892Hz,0000000000c,0000000.000s, 037.7C,00002195
2016-05-03 10:21:19 r, 00.00m,0000564993Hz,0000000000c,0000000.000s, 038.3C,00002195
2016-05-03 10:31:18 r, 00.00m,0000565038Hz,0000000000c,0000000.000s, 039.0C,00002195
2016-05-03 10:41:18 r, 00.00m,0000565063Hz,0000000000c,0000000.000s, 039.3C,00002195
2016-05-03 10:51:18 r, 00.00m,0000565086Hz,0000000000c,0000000.000s, 039.9C,00002195
2016-05-03 11:01:18 r, 00.00m,0000565206Hz,0000000000c,0000000.000s, 040.6C,00002195
2016-05-03 11:11:18 r, 00.00m,0000565203Hz,0000000000c,0000000.000s, 040.6C,00002195
2016-05-03 11:21:18 r, 00.00m,0000565204Hz,0000000000c,0000000.000s, 040.9C,00002195
2016-05-03 11:31:18 r, 00.00m,0000565159Hz,0000000000c,0000000.000s, 040.9C,00002195
2016-05-03 11:41:19 r, 00.00m,0000565295Hz,0000000000c,0000000.000s, 041.5C,00002195
2016-05-03 11:51:19 r, 00.00m,0000565299Hz,0000000000c,0000000.000s, 041.9C,00002195
2016-05-03 12:01:19 r, 00.00m,0000565390Hz,0000000000c,0000000.000s, 042.2C,00002195
2016-05-03 12:11:18 r, 00.00m,0000565271Hz,0000000000c,0000000.000s, 042.2C,00002195
2016-05-03 12:21:19 r, 00.00m,0000565404Hz,0000000000c,0000000.000s, 042.5C,00002195
2016-05-03 12:31:19 r, 00.00m,0000565438Hz,0000000000c,0000000.000s, 042.8C,00002195
2016-05-03 12:41:18 r, 00.00m,0000565429Hz,0000000000c,0000000.000s, 043.1C,00002195
2016-05-03 12:51:19 r, 00.00m,0000565427Hz,0000000000c,0000000.000s, 043.1C,00002195
2016-05-03 13:01:19 r, 00.00m,0000565367Hz,0000000000c,0000000.000s, 043.5C,00002195
2016-05-03 13:11:19 r, 00.00m,0000565373Hz,0000000000c,0000000.000s, 043.5C,00002195
2016-05-03 13:21:19 r, 00.00m,0000565472Hz,0000000000c,0000000.000s, 044.1C,00002195
2016-05-03 13:31:20 r, 00.00m,0000565476Hz,0000000000c,0000000.000s, 044.4C,00002195
2016-05-03 13:41:18 r, 00.00m,0000565505Hz,0000000000c,0000000.000s, 044.4C,00002195
2016-05-03 13:51:18 r, 00.00m,0000565509Hz,0000000000c,0000000.000s, 043.8C,00002195
2016-05-03 14:01:19 r, 00.00m,0000565577Hz,0000000000c,0000000.000s, 044.1C,00002195
2016-05-03 14:11:18 r, 00.00m,0000565527Hz,0000000000c,0000000.000s, 044.1C,00002195
2016-05-03 14:21:20 r, 00.00m,0000565539Hz,0000000000c,0000000.000s, 043.8C,00002195
2016-05-03 14:31:19 r, 00.00m,0000565510Hz,0000000000c,0000000.000s, 044.1C,00002195
2016-05-03 14:41:18 r, 00.00m,0000565532Hz,0000000000c,0000000.000s, 044.1C,00002195
2016-05-03 14:51:19 r, 00.00m,0000565513Hz,0000000000c,0000000.000s, 044.1C,00002195
2016-05-03 15:01:19 r, 00.00m,0000565492Hz,0000000000c,0000000.000s, 043.5C,00002195
2016-05-03 15:11:18 r, 00.00m,0000565427Hz,0000000000c,0000000.000s, 043.8C,00002195
2016-05-03 15:21:18 r, 00.00m,0000565465Hz,0000000000c,0000000.000s, 044.1C,00002195
2016-05-03 15:31:19 r, 00.00m,0000565413Hz,0000000000c,0000000.000s, 043.5C,00002195
2016-05-03 15:41:18 r, 00.00m,0000565444Hz,0000000000c,0000000.000s, 043.8C,00002195
2016-05-03 15:51:20 r, 00.00m,0000565422Hz,0000000000c,0000000.000s, 043.5C,00002195
2016-05-03 16:01:19 r, 00.00m,0000565435Hz,0000000000c,0000000.000s, 043.1C,00002195
2016-05-03 16:11:18 r, 00.00m,0000565368Hz,0000000000c,0000000.000s, 042.8C,00002195
2016-05-03 16:21:18 r, 00.00m,0000565269Hz,0000000000c,0000000.000s, 042.5C,00002195
2016-05-03 16:31:19 r, 00.00m,0000565225Hz,0000000000c,0000000.000s, 042.2C,00002195
2016-05-03 16:41:18 r, 00.00m,0000565138Hz,0000000000c,0000000.000s, 041.5C,00002195
2016-05-03 16:51:18 r, 00.00m,0000565184Hz,0000000000c,0000000.000s, 041.5C,00002195
2016-05-03 17:01:19 r, 00.00m,0000565100Hz,0000000000c,0000000.000s, 040.9C,00002195
2016-05-03 17:11:18 r, 00.00m,0000565124Hz,0000000000c,0000000.000s, 040.2C,00002195
2016-05-03 17:21:18 r, 00.00m,0000564967Hz,0000000000c,0000000.000s, 039.9C,00002195
2016-05-03 17:31:20 r, 00.00m,0000564945Hz,0000000000c,0000000.000s, 039.3C,00002195
2016-05-03 17:41:18 r, 00.00m,0000564950Hz,0000000000c,0000000.000s, 038.6C,00002195
2016-05-03 17:51:19 r, 00.00m,0000564948Hz,0000000000c,0000000.000s, 038.3C,00002195
2016-05-03 18:01:19 r, 00.00m,0000564864Hz,0000000000c,0000000.000s, 038.0C,00002195
2016-05-03 18:11:18 r, 00.00m,0000564769Hz,0000000000c,0000000.000s, 037.7C,00002195
2016-05-03 18:21:18 r, 00.00m,0000564604Hz,0000000000c,0000000.000s, 037.0C,00002195
2016-05-03 18:31:18 r, 00.00m,0000564642Hz,0000000000c,0000000.000s, 036.7C,00002195
2016-05-03 18:41:18 r, 00.00m,0000564563Hz,0000000000c,0000000.000s, 036.0C,00002195
2016-05-03 18:51:19 r, 00.00m,0000564417Hz,0000000000c,0000000.000s, 035.7C,00002195
2016-05-03 19:01:20 r, 00.00m,0000564394Hz,0000000000c,0000000.000s, 035.4C,00002195
2016-05-03 19:11:18 r, 00.00m,0000564272Hz,0000000000c,0000000.000s, 034.4C,00002195
2016-05-03 19:21:19 r, 00.00m,0000564283Hz,0000000000c,0000000.000s, 033.8C,00002195
2016-05-03 19:31:18 r, 00.00m,0000564174Hz,0000000000c,0000000.000s, 033.5C,00002195
2016-05-03 19:41:18 r, 00.00m,0000564183Hz,0000000000c,0000000.000s, 033.1C,00002195
2016-05-03 19:51:19 r, 00.00m,0000564025Hz,0000000000c,0000000.000s, 032.5C,00002195
2016-05-03 20:01:19 r, 00.00m,0000552908Hz,0000000000c,0000000.000s, 031.9C,00002195
2016-05-03 20:11:18 r, 00.00m,0000454152Hz,0000000000c,0000000.000s, 031.2C,00002195
2016-05-03 20:21:18 r, 06.02m,0000349561Hz,0000000000c,0000000.000s, 030.6C,00002195
2016-05-03 20:31:19 r, 06.40m,0000245125Hz,0000000000c,0000000.000s, 029.9C,00002195
2016-05-03 20:41:18 r, 06.97m,0000144434Hz,0000000000c,0000000.000s, 029.3C,00002195
2016-05-03 20:51:21 r, 07.80m,0000067901Hz,0000000000c,0000000.000s, 028.6C,00002195
2016-05-03 21:01:18 r, 08.97m,0000023022Hz,0000000000c,0000000.000s, 028.0C,00002195
2016-05-03 21:11:18 r, 10.49m,0000005644Hz,0000000000c,0000000.000s, 027.7C,00002195
2016-05-03 21:21:20 r, 12.20m,0000001173Hz,0000000000c,0000000.000s, 027.3C,00002195
2016-05-03 21:31:18 r, 13.98m,0000000228Hz,0000000000c,0000000.000s, 027.0C,00002195
2016-05-03 21:41:18 r, 15.68m,0000000048Hz,0000009728c,0000000.021s, 026.7C,00002195
2016-05-03 21:51:19 r, 16.86m,0000000016Hz,0000028957c,0000000.063s, 026.4C,00002195
2016-05-03 22:01:21 r, 17.61m,0000000008Hz,0000057472c,0000000.125s, 026.4C,00002195
2016-05-03 22:11:18 r, 18.00m,0000000006Hz,0000082882c,0000000.180s, 026.1C,00002195
2016-05-03 22:21:21 r, 18.19m,0000000005Hz,0000097962c,0000000.213s, 025.7C,00002195
2016-05-03 22:31:19 r, 18.27m,0000000004Hz,0000106231c,0000000.231s, 025.7C,00002195
2016-05-03 22:41:18 r, 18.29m,0000000005Hz,0000108500c,0000000.235s, 025.4C,00002195
2016-05-03 22:51:18 r, 18.31m,0000000005Hz,0000110394c,0000000.240s, 025.4C,00002195
2016-05-03 23:01:20 r, 18.33m,0000000004Hz,0000112521c,0000000.244s, 025.4C,00002195
2016-05-03 23:11:18 r, 18.34m,0000000004Hz,0000113123c,0000000.245s, 025.1C,00002195
2016-05-03 23:21:18 r, 18.34m,0000000005Hz,0000113264c,0000000.246s, 025.1C,00002195
2016-05-03 23:31:19 r, 18.36m,0000000004Hz,0000115165c,0000000.250s, 024.8C,00002195
2016-05-03 23:41:18 r, 18.37m,0000000004Hz,0000115899c,0000000.252s, 024.8C,00002195
2016-05-03 23:51:18 r, 18.37m,0000000004Hz,0000116160c,0000000.252s, 024.8C,00002195
